Comodoro Arturo Merino Benítez International Airport
SCEL : now visible

Airfield :











YOU CAN JOIN US ON...

 
LOGIN :

Register | Disclaimer

   EN    FR    IT 

 









Legend :    VFR   Marginal VFR   IFR   Intensive IFR   Very Intensive IFR
Visi :
Ceiling :
>= 8 km
>= 3000ft
5 to 8 km
1000 to 3000 ft
1500m to 5 km
500 to 1000 ft
800 to 1500m
200 to 500 ft
< 800m
< 200 ft
Symbols :   Thunderstorms  Fog  Heavy snow  Heavy precipitations  Wind > 20 kt







- Airport Elevation : 1555 ft
- IATA code : SCL


SCEL - Comodoro Arturo Merino Benítez International

CURRENT METAR :
  • 241600Z 15008KT 9999 FEW020 OVC090 09/06 Q1018 NOSIG

EXPIRED METARs :
  • 241500Z 20010KT 170V230 9999 FEW040 OVC100 09/06 Q1017 NOSIG
  • 241400Z 12009KT 7000 FEW050 OVC120 09/07 Q1017 NOSIG

TAF TAF SCEL
Valid from the 24 at 12:00 until the 25 at 12:00 UTC


241000Z 2412/2512 23004KT 8000 BKN120 OVC150 TX10/2417Z TNM01/2511Z
TEMPO 2412/2414 30005KT 6000 SCT020 BKN050 OVC120
BECMG 2416/2418 33013KT 7000 -SHRA SCT020 BKN050 OVC080
BECMG 2419/2421 21010KT 5000 RA BKN020 BKN035
BECMG 2501/2503 9999 NSW SCT030
BECMG 2503/2505 7000 NSC
TEMPO 2508/2512 0800 BCFG
SCEZ FIR / South America



MET'MAP, your aeronautical weather chart ! - Copyright ORBIFLY December 2007 - Disclaimer

ORBIFLY MET'MAP TEAM :

Programming & Development : Alexandra Zaïnal
Concept & Development : Baudouin d'Aumeries
Co-Development & Prog : Marc-Olivier Méhu
Technical & hardware support : Manuel Goepfert

Contact : metmap@orbifly.com




SOURCES & CREDITS :

   NOAA       Earth
Advisory